Date String (YYYY-MM-DD hh:mm:ss) UTC,Instrument flags,Ambient pressure (hPa),Sample flow (lpm),Bypass flow (lpm),Sample temperature (°C),Ambient temperature (°C),ASC tube jacket temperature (°C),LED temperature (°C),Box temperature (°C),Sample RH (%),Span deviation,Mass concentration (μg/m³),Mass concentration (μg/m³),Mass concentration (μg/m³)
DateTimeUTC,F1_M11,P_M11,Q1_M11,Q2_M11,T1_M11,T2_M11,T3_M11,T4_M11,T5_M11,U1_M11,ZSPAN_M11,X0_M11,X2_M11,X1_M11
2022-03-27 23:00:00,,0821.0,5.00,0.00,28.8,28.0,00.0,37.7,30.6,14.1,0001.8,0032.10,0018.55,0017.02
2022-03-27 23:01:00,,0821.0,5.00,0.00,28.8,28.0,00.0,37.7,30.6,14.0,0001.9,0032.63,0018.79,0017.25
2022-03-27 23:02:00,,0821.0,4.99,0.00,28.8,28.0,00.0,37.7,30.6,14.0,0001.8,0032.73,0019.06,0017.50
2022-03-27 23:03:00,,0821.0,5.01,0.00,28.8,28.0,00.0,37.7,30.7,13.9,0001.5,0032.58,0019.36,0017.76
2022-03-27 23:04:00,,0821.0,5.00,0.00,28.8,28.0,00.0,37.7,30.7,13.8,0001.2,0030.93,0019.58,0017.98
2022-03-27 23:05:00,,0821.0,4.99,0.00,28.8,28.0,00.0,37.7,30.6,13.8,0001.2,0031.28,0019.84,0018.23
2022-03-27 23:06:00,,0821.0,5.00,0.00,28.8,28.0,00.0,37.7,30.7,13.8,0001.6,0032.54,0020.11,0018.48
2022-03-27 23:07:00,,0821.1,5.01,0.00,28.9,28.0,00.0,37.7,30.7,13.9,0001.8,0033.27,0020.42,0018.80
2022-03-27 23:08:00,,0821.1,5.00,0.00,28.9,28.0,00.0,37.8,30.7,13.9,0002.1,0034.49,0020.63,0019.01
2022-03-27 23:09:00,,0821.1,4.99,0.00,28.9,28.1,00.0,37.8,30.7,13.9,0002.8,0034.81,0020.83,0019.19
2022-03-27 23:10:00,,0821.0,5.01,0.00,28.9,28.1,00.0,37.8,30.7,13.8,0002.7,0034.60,0021.15,0019.42
2022-03-27 23:11:00,,0820.9,4.99,0.00,28.9,28.1,00.0,37.8,30.7,13.8,0003.0,0035.27,0021.45,0019.68
2022-03-27 23:12:00,,0820.9,5.01,0.00,28.9,28.0,00.0,37.8,30.7,13.7,0002.8,0035.26,0021.64,0019.93
2022-03-27 23:13:00,,0821.0,5.01,0.00,28.9,28.0,00.0,37.8,30.7,13.7,0003.1,0034.97,0021.76,0020.11
2022-03-27 23:14:00,,0821.0,4.99,0.00,28.9,28.0,00.0,37.8,30.7,13.8,0003.4,0034.99,0021.98,0020.30
2022-03-27 23:15:00,,0821.1,5.01,0.00,28.9,28.1,00.0,37.8,30.7,13.8,0003.6,0035.38,0022.17,0020.52
2022-03-27 23:16:00,,0821.1,5.00,0.00,28.9,28.1,00.0,37.8,30.7,13.8,0003.8,0035.53,0022.32,0020.63
2022-03-27 23:17:00,,0821.1,4.99,0.00,28.9,28.1,00.0,37.8,30.7,13.9,0003.5,0034.32,0022.40,0020.71
2022-03-27 23:18:00,,0821.1,5.01,0.00,28.9,28.1,00.0,37.8,30.7,13.8,0003.6,0033.34,0022.44,0020.72
2022-03-27 23:19:00,,0821.1,4.98,0.00,28.9,28.1,00.0,37.8,30.8,13.8,0003.7,0032.62,0022.49,0020.73
2022-03-27 23:20:00,,0821.0,5.01,0.00,28.9,28.1,00.0,37.8,30.8,13.8,0003.3,0033.06,0022.54,0020.79
2022-03-27 23:21:00,,0820.9,4.99,0.00,28.9,28.1,00.0,37.8,30.7,13.9,0003.2,0034.18,0022.53,0020.78
2022-03-27 23:22:00,,0821.0,5.00,0.00,29.0,28.1,00.0,37.8,30.7,13.8,0002.7,0033.78,0022.47,0020.75
2022-03-27 23:23:00,,0821.0,5.00,0.00,29.0,28.1,00.0,37.8,30.8,13.9,0002.5,0033.59,0022.45,0020.76
2022-03-27 23:24:00,,0821.0,4.99,0.00,29.0,28.1,00.0,37.9,30.7,14.0,0002.5,0033.86,0022.51,0020.82
2022-03-27 23:25:00,,0821.0,5.02,0.00,29.0,28.1,00.0,37.9,30.8,13.9,0002.1,0034.53,0022.62,0020.91
2022-03-27 23:26:00,,0821.0,5.00,0.00,29.0,28.1,00.0,37.9,30.7,13.8,0002.1,0035.40,0022.73,0020.95
2022-03-27 23:27:00,,0821.1,4.98,0.00,29.0,28.2,00.0,37.9,30.8,13.7,0002.2,0036.08,0022.78,0021.01
2022-03-27 23:28:00,,0821.0,5.02,0.00,29.0,28.1,00.0,37.9,30.8,13.7,0002.2,0036.36,0022.78,0020.99
2022-03-27 23:29:00,,0821.0,4.99,0.00,29.0,28.2,00.0,37.9,30.8,14.0,0002.2,0036.65,0022.84,0021.03
2022-03-27 23:30:00,,0821.0,4.99,0.00,29.0,28.2,00.0,37.9,30.8,14.1,0001.9,0036.82,0023.03,0021.21
2022-03-27 23:31:00,,0821.1,5.01,0.00,29.0,28.2,00.0,37.9,30.8,14.0,0001.7,0036.45,0023.19,0021.37
2022-03-27 23:32:00,,0821.0,5.00,0.00,29.0,28.2,00.0,37.9,30.8,14.0,0001.8,0036.72,0023.35,0021.53
2022-03-27 23:33:00,,0821.0,5.00,0.00,29.0,28.2,00.0,37.9,30.8,14.0,0002.1,0037.34,0023.39,0021.54
2022-03-27 23:34:00,,0821.0,5.01,0.00,29.0,28.2,00.0,37.9,30.8,13.9,0002.2,0038.20,0023.24,0021.37
2022-03-27 23:35:00,,0821.0,4.99,0.00,29.0,28.2,00.0,37.9,30.9,13.7,0001.9,0038.16,0023.20,0021.30
2022-03-27 23:36:00,,0821.1,5.00,0.00,29.1,28.3,00.0,37.9,30.9,13.8,0002.1,0038.50,0023.10,0021.25
2022-03-27 23:37:00,,0821.1,5.01,0.00,29.1,28.3,00.0,37.9,30.9,13.7,0002.2,0037.73,0023.05,0021.21
2022-03-27 23:38:00,,0821.1,4.99,0.00,29.1,28.3,00.0,37.9,30.9,13.7,0001.9,0036.87,0022.98,0021.14
2022-03-27 23:39:00,,0821.0,4.99,0.00,29.1,28.3,00.0,38.0,30.9,13.9,0002.1,0036.59,0023.07,0021.19
2022-03-27 23:40:00,,0821.0,5.02,0.00,29.1,28.3,00.0,38.0,30.9,13.8,0002.1,0036.70,0023.11,0021.22
2022-03-27 23:41:00,,0821.0,4.99,0.00,29.1,28.3,00.0,38.0,30.9,13.8,0002.2,0036.35,0022.89,0021.07
2022-03-27 23:42:00,,0821.0,5.00,0.00,29.1,28.3,00.0,38.0,30.9,13.7,0002.5,0035.95,0022.64,0020.86
2022-03-27 23:43:00,,0821.0,5.02,0.00,29.1,28.3,00.0,38.0,30.9,13.6,0003.0,0035.44,0022.62,0020.90
2022-03-27 23:44:00,,0821.1,4.98,0.00,29.1,28.3,00.0,38.0,30.9,13.6,0002.9,0034.88,0022.87,0021.13
2022-03-27 23:45:00,,0821.1,4.99,0.00,29.1,28.3,00.0,38.0,31.0,13.6,0002.7,0034.68,0023.25,0021.49
2022-03-27 23:46:00,,0821.1,5.02,0.00,29.2,28.3,00.0,38.0,31.0,13.6,0003.1,0035.54,0023.58,0021.81
2022-03-27 23:47:00,,0821.1,5.00,0.00,29.2,28.3,00.0,38.0,31.0,13.5,0003.0,0035.12,0023.82,0022.02
2022-03-27 23:48:00,,0821.1,4.99,0.00,29.2,28.4,00.0,38.0,31.0,13.6,0002.8,0035.04,0023.93,0022.19
2022-03-27 23:49:00,,0821.1,5.01,0.00,29.2,28.4,00.0,38.1,31.0,13.6,0002.4,0035.70,0024.09,0022.43
2022-03-27 23:50:00,,0821.1,4.99,0.00,29.2,28.4,00.0,38.1,31.0,13.6,0002.2,0036.70,0024.27,0022.63
2022-03-27 23:51:00,,0821.1,5.00,0.00,29.2,28.4,00.0,38.1,31.0,13.6,0002.1,0038.16,0024.40,0022.82
2022-03-27 23:52:00,,0821.0,5.01,0.00,29.2,28.4,00.0,38.1,31.0,13.7,0001.9,0039.12,0024.63,0023.05
2022-03-27 23:53:00,,0821.0,4.98,0.00,29.2,28.4,00.0,38.1,31.0,13.8,0002.0,0039.30,0024.81,0023.24
2022-03-27 23:54:00,,0821.0,5.01,0.00,29.2,28.4,00.0,38.1,31.0,13.5,0001.9,0039.18,0024.82,0023.22
2022-03-27 23:55:00,,0821.1,4.99,0.00,29.2,28.4,00.0,38.1,31.0,13.5,0001.5,0038.96,0024.63,0023.05
2022-03-27 23:56:00,,0821.1,4.99,0.00,29.3,28.4,00.0,38.1,31.1,13.5,0001.3,0038.48,0024.48,0022.94
2022-03-27 23:57:00,,0821.1,5.00,0.00,29.3,28.5,00.0,38.1,31.1,13.6,0000.9,0037.75,0024.33,0022.80
2022-03-27 23:58:00,,0821.1,5.01,0.00,29.3,28.5,00.0,38.1,31.1,13.5,0001.1,0037.97,0024.16,0022.66
2022-03-27 23:59:00,,0821.1,4.99,0.00,29.3,28.5,00.0,38.1,31.1,13.6,0001.3,0038.34,0024.09,0022.53
